Terminal Aerodrome Forecast
Issued by NWS

Home | Current Version | Previous Version | Text Only | Print | Product List | Glossary On
Versions: 1 2 3 4 5 6 7 8 9 10 11 12 13 14 15 16 17 18 19 20 21 22 23 24 25 26 27 28 29 30 31 32 33 34
000
FTUS45 KSLC 230529
TAFENV
TAF
KENV 230529Z 2306/2406 19005KT P6SM SCT120
     FM230800 34006KT P6SM SCT150
     FM231600 12008KT P6SM SCT150
     FM232100 24012KT P6SM VCSH SCT070 BKN100
     FM240200 32007KT P6SM BKN120=

USA.gov is the U.S. government's official web portal to all federal, state and local government web resources and services.